This is the latest recevied weather packets stored in our database for station/object DL2GPS-3. If no packets are shown the sender has not sent any weather packets the latest 10 day(s).
| Time | Temp. | Humidity | Pressure | Rain* | Wind** | Luminosity | Snow |
|---|---|---|---|---|---|---|---|
| 1777490206 | 10° C | 42% | 1022.1 hPa | - | - | - | - |
| 1777489605 | 10° C | 43% | 1022.1 hPa | - | - | - | - |
| 1777489004 | 10.56° C | 43% | 1021.8 hPa | - | - | - | - |
| 1777488403 | 10.56° C | 43% | 1021.8 hPa | - | - | - | - |
| 1777487803 | 11.11° C | 44% | 1021.8 hPa | - | - | - | - |
| 1777487201 | 11.11° C | 44% | 1021.6 hPa | - | - | - | - |
| 1777486600 | 11.67° C | 44% | 1021.6 hPa | - | - | - | - |
| 1777485999 | 11.67° C | 45% | 1021.4 hPa | - | - | - | - |
| 1777485398 | 11.67° C | 45% | 1021.4 hPa | - | - | - | - |
| 1777484798 | 12.22° C | 45% | 1021.2 hPa | - | - | - | - |
| 1777484197 | 12.22° C | 44% | 1021.1 hPa | - | - | - | - |
| 1777483597 | 12.78° C | 43% | 1021.1 hPa | - | - | - | - |
| 1777482996 | 12.78° C | 43% | 1021.1 hPa | - | - | - | - |
| 1777482395 | 13.33° C | 43% | 1021 hPa | - | - | - | - |
| 1777481794 | 13.33° C | 42% | 1021 hPa | - | - | - | - |
| 1777481192 | 13.89° C | 38% | 1021 hPa | - | - | - | - |
| 1777480592 | 14.44° C | 35% | 1020.8 hPa | - | - | - | - |
| 1777479991 | 14.44° C | 35% | 1021 hPa | - | - | - | - |
| 1777479391 | 14.44° C | 34% | 1020.8 hPa | - | - | - | - |
| 1777478789 | 15° C | 35% | 1021.1 hPa | - | - | - | - |
| 1777478189 | 15° C | 34% | 1021 hPa | - | - | - | - |
| 1777477587 | 15.56° C | 34% | 1020.8 hPa | - | - | - | - |
| 1777476986 | 15.56° C | 34% | 1020.9 hPa | - | - | - | - |
| 1777476385 | 15.56° C | 35% | 1020.9 hPa | - | - | - | - |
| 1777475785 | 15.56° C | 33% | 1020.7 hPa | - | - | - | - |
* Rain since midnight (hover to see other rain measurements)
** Current wind speed in m/s (hover to see current wind gust speed)